User: anonymous   Login
Location: *
(32.8667°N, 13.1833°E)
Time: 11:07:22
(UTC+00:00)
Language:

ERBS - Orbit

View from above orbital plane
View from above orbital plane
View from above satellite
View from above satellite

Ground track
Ground track

The orbit data is extracted from the following two-line orbital elements,

1 15354U 84108B   19262.17317639  .00001700  00000-0  39733-4 0  9993
2 15354  57.0064 177.4753 0005231 214.2830 145.7890 15.48164548925643
Epoch (UTC): 19 September 2019 04:09:22
Eccentricity: 0.0005231
inclination: 57.0064°
perigee height: 418 km
apogee height: 425 km
right ascension of ascending node: 177.4753°
argument of perigee: 214.2830°
revolutions per day: 15.48164548
mean anomaly at epoch: 145.7890°
orbit number at epoch: 92564

The dashed part of the orbit path shows where the satellite is in the earth's shadow,  

DLR